Location: DARK SKY Beskydy - Park tmavé oblohy, www.darkskybeskydy.cz
(49.4926°N, 18.5016°E)
Time: 11:06:36
(UTC+02:00)

Transit 4A - Pass Details

Date: 03 March 2024
Orbit: 871 x 971 km, 66.8° (Epoch: 24 April)

Event Time Altitude Azimuth Distance (km) Brightness Sun altitude
Exits shadow 02:35:19 20° 347° (NNW) 1,982 9.8 -36.0°
Drops below altitude 10° 02:38:52 10° 23° (NNE) 2,565 10.8 -35.5°
Sets 02:42:05 0° 41° (NE) 3,492 11.9 -35.1°
